Printer-friendly version

IAU Minor Planet Center

Minor Planet Center

(12) Victoria

Orbital Elements

The following orbital elements are taken from MPO 57621
   (12) Victoria
Epoch 2007 Apr. 10.0 TT = JDT 2454200.5                 Goffin
M 357.16326              (2000.0)            P               Q
n   0.27638893     Peri.   69.57992     +0.56703310     +0.81491743
a   2.3341152      Node   235.53729     -0.79952836     +0.50952169
e   0.2203022      Incl.    8.36380     -0.19806028     +0.27621951
P   3.57           H    7.24          G   0.22           U   0
From 2635 observations at 86 oppositions, 1850-2003, mean residual 0".56.
An explanation of the orbital elements is available.

These orbital elements are also available in forms suitable for loading into a number of popular planetarium-type software programs.


Ephemeris

The following ephemeris is at intervals of five days. A daily ephemeris covering the same time interval is also available.

Personalized ephemerides for this object (and others) can be generated using the MPES.

Date    TT    R. A. (2000) Decl.     Delta      r     Elong.  Phase     V
 
2007 07 10    00 32.70   +14 29.8    1.514    1.881    94.0    32.6    10.8
2007 07 15    00 38.83   +15 22.6    1.474    1.889    97.0    32.3    10.7
2007 07 20    00 44.44   +16 11.7    1.434    1.897   100.1    31.8    10.7
2007 07 25    00 49.50   +16 56.8    1.394    1.905   103.3    31.3    10.6
2007 07 30    00 53.95   +17 37.6    1.355    1.913   106.8    30.5    10.5
2007 08 04    00 57.74   +18 13.6    1.317    1.922   110.4    29.7    10.4
2007 08 09    01 00.81   +18 44.5    1.280    1.931   114.2    28.6    10.4
2007 08 14    01 03.11   +19 09.6    1.245    1.941   118.2    27.4    10.3
2007 08 19    01 04.60   +19 28.5    1.211    1.951   122.4    26.0    10.2
2007 08 24    01 05.24   +19 40.7    1.180    1.961   126.8    24.4    10.1
2007 08 29    01 05.02   +19 45.7    1.151    1.971   131.5    22.6    10.0
2007 09 03    01 03.95   +19 43.0    1.125    1.981   136.3    20.6     9.9
2007 09 08    01 02.05   +19 32.1    1.103    1.992   141.4    18.4     9.8
2007 09 13    00 59.39   +19 13.0    1.085    2.003   146.6    16.0     9.7
2007 09 18    00 56.07   +18 45.5    1.071    2.014   152.0    13.6     9.6
2007 09 23    00 52.24   +18 10.2    1.062    2.026   157.3    11.0     9.5
2007 09 28    00 48.05   +17 27.8    1.059    2.037   162.4     8.5     9.4
2007 10 03    00 43.69   +16 39.4    1.062    2.049   166.8     6.4     9.4
2007 10 08    00 39.35   +15 46.5    1.070    2.061   169.3     5.1     9.3
2007 10 13    00 35.22   +14 50.7    1.085    2.073   168.6     5.5     9.4
2007 10 18    00 31.47   +13 53.9    1.106    2.085   165.1     7.1     9.5
2007 10 23    00 28.26   +12 57.9    1.133    2.097   160.4     9.2     9.7
2007 10 28    00 25.68   +12 04.4    1.166    2.109   155.2    11.4     9.8
2007 11 02    00 23.81   +11 14.5    1.204    2.122   149.9    13.6    10.0
2007 11 07    00 22.69   +10 29.4    1.247    2.134   144.6    15.6    10.1
2007 11 12    00 22.35   +09 49.8    1.296    2.147   139.5    17.4    10.3
2007 11 17    00 22.76   +09 16.3    1.348    2.159   134.4    19.1    10.4
2007 11 22    00 23.92   +08 48.9    1.405    2.172   129.6    20.5    10.6
2007 11 27    00 25.78   +08 27.6    1.465    2.184   124.9    21.8    10.7
2007 12 02    00 28.28   +08 12.3    1.528    2.197   120.3    22.8    10.9
2007 12 07    00 31.39   +08 02.6    1.594    2.210   115.9    23.6    11.0
2007 12 12    00 35.06   +07 58.3    1.662    2.222   111.7    24.3    11.1
2007 12 17    00 39.24   +07 59.0    1.732    2.235   107.6    24.8    11.2
2007 12 22    00 43.90   +08 04.3    1.803    2.248   103.6    25.2    11.3
2007 12 27    00 48.96   +08 13.6    1.876    2.261    99.7    25.4    11.4

Back to Bright Minor Planets

Astronomical Headlines Index

MPC


Valid HTML 4.01!